Weather History for Clovis, NM

Change the Weather History Date:

Saturday, October 27, 2012

  Actual Average Record
Temperature  
Mean Temperature 42 °F -  
Max Temperature 59 °F 70 °F 88 °F (1979)
Min Temperature 24 °F 40 °F 20 °F (1925)
Degree Days  
Heating Degree Days 24    
Moisture  
Dew Point 19 °F    
Average Humidity 43    
Maximum Humidity 64    
Minimum Humidity 25    
Precipitation  
Precipitation 0.00 in - - ()
Sea Level Pressure  
Sea Level Pressure 30.22 in    
Wind  
Wind Speed 9 mph (South)    
Max Wind Speed 21 mph    
Max Gust Speed 25 mph    
Visibility 10 miles    
Events      
Averages and records for this station are not official NWS values.
T = Trace of Precipitation, MM = Missing Value Source: NWS Daily Summary

Daily Weather History Graph

Daily Weather History Graph

Search for Another Location

Airport:

Trip Planner

Search our weather history database for the weather conditions in past years. The results will help you decide how hot, cold, wet, or windy it might be!

Date:

Astronomy

Oct. 27, 2012 Rise Set
Actual Time 7:08 AM MDT 6:03 PM MDT
Civil Twilight 6:42 AM MDT 6:29 PM MDT
Nautical Twilight 6:13 AM MDT 6:58 PM MDT
Astronomical Twilight 5:43 AM MDT 7:27 PM MDT
Moon 4:48 PM MDT (10/27) 5:09 AM MDT (10/27)
Length of Visible Light 11h 46m
Length of Day
10h 54m
Waxing Gibbous, 96% of the Moon is Illuminated
Oct 27
Waxing Gibbous
Oct 29
Full
Nov 6
Last Quarter
Nov 13
New
Nov 20
First Quarter

Hourly Weather History & Observations

Time (MDT) Temp. Windchill Dew Point Humidity Pressure Visibility Wind Dir Wind Speed Gust Speed Precip Events Conditions
12:15 AM 28.4 °F 22.2 °F 17.6 °F 64% 30.36 in 10.0 mi ESE 5.8 mph - N/A   Clear
12:35 AM 28.4 °F 22.2 °F 17.6 °F 64% 30.36 in 10.0 mi ESE 5.8 mph - N/A   Clear
12:55 AM 28.4 °F 23.3 °F 17.6 °F 64% 30.35 in 10.0 mi ESE 4.6 mph - N/A   Clear
1:15 AM 30.2 °F 24.3 °F 17.6 °F 60% 30.35 in 10.0 mi SSE 5.8 mph - N/A   Clear
1:35 AM 28.4 °F 24.6 °F 17.6 °F 64% 30.34 in 10.0 mi SSE 3.5 mph - N/A   Clear
1:55 AM 28.4 °F 24.6 °F 17.6 °F 64% 30.33 in 10.0 mi ESE 3.5 mph - N/A   Clear
2:35 AM 28.4 °F 23.3 °F 17.6 °F 64% 30.32 in 10.0 mi South 4.6 mph - N/A   Clear
2:55 AM 28.4 °F 22.2 °F 17.6 °F 64% 30.32 in 10.0 mi SSW 5.8 mph - N/A   Clear
3:15 AM 28.4 °F 22.2 °F 15.8 °F 59% 30.31 in 10.0 mi South 5.8 mph - N/A   Clear
3:35 AM 26.6 °F 20.0 °F 15.8 °F 64% 30.31 in 10.0 mi SSW 5.8 mph - N/A   Clear
3:55 AM 26.6 °F 20.0 °F 15.8 °F 64% 30.30 in 10.0 mi SSW 5.8 mph - N/A   Clear
4:15 AM 26.6 °F 21.2 °F 15.8 °F 64% 30.30 in 10.0 mi SSW 4.6 mph - N/A   Clear
4:35 AM 26.6 °F 19.1 °F 15.8 °F 64% 30.29 in 10.0 mi South 6.9 mph - N/A   Clear
4:55 AM 26.6 °F 18.2 °F 15.8 °F 64% 30.28 in 10.0 mi SSW 8.1 mph - N/A   Clear
5:15 AM 28.4 °F 19.7 °F 15.8 °F 59% 30.28 in 10.0 mi South 9.2 mph - N/A   Clear
5:55 AM 28.4 °F 24.6 °F 15.8 °F 59% 30.29 in 10.0 mi South 3.5 mph - N/A   Clear
6:15 AM 26.6 °F - 15.8 °F 64% 30.29 in 10.0 mi Calm Calm - N/A   Clear
6:35 AM 28.4 °F 23.3 °F 15.8 °F 59% 30.28 in 10.0 mi SW 4.6 mph - N/A   Clear
6:55 AM 24.8 °F 15.3 °F 14.0 °F 64% 30.28 in 10.0 mi SW 9.2 mph - N/A   Clear
7:15 AM 26.6 °F 16.8 °F 14.0 °F 59% 30.27 in 10.0 mi SW 10.4 mph - N/A   Clear
7:35 AM 28.4 °F 19.7 °F 15.8 °F 59% 30.30 in 10.0 mi WSW 9.2 mph - N/A   Clear
7:55 AM 30.2 °F 23.4 °F 15.8 °F 55% 30.30 in 10.0 mi SW 6.9 mph - N/A   Clear
8:15 AM 32.0 °F 23.6 °F 15.8 °F 51% 30.31 in 10.0 mi SW 10.4 mph - N/A   Clear
8:35 AM 33.8 °F 26.4 °F 15.8 °F 48% 30.30 in 10.0 mi SW 9.2 mph - N/A   Clear
8:55 AM 35.6 °F 26.6 °F 15.8 °F 44% 30.30 in 10.0 mi SW 13.8 mph - N/A   Clear
9:35 AM 39.2 °F 30.5 °F 15.8 °F 39% 30.29 in 10.0 mi SSW 16.1 mph - N/A   Clear
9:55 AM 39.2 °F 29.8 °F 17.6 °F 42% 30.27 in 10.0 mi SSW 18.4 mph 24.2 mph N/A   Clear
10:15 AM 42.8 °F 34.3 °F 15.8 °F 34% 30.26 in 10.0 mi SSW 19.6 mph - N/A   Clear
10:35 AM 42.8 °F 34.5 °F 17.6 °F 36% 30.26 in 10.0 mi SSW 18.4 mph 21.9 mph N/A   Clear
10:55 AM 44.6 °F 36.9 °F 17.6 °F 34% 30.24 in 10.0 mi SSW 18.4 mph - N/A   Clear
11:15 AM 46.4 °F 39.2 °F 17.6 °F 32% 30.23 in 10.0 mi SW 18.4 mph 25.3 mph N/A   Clear
11:35 AM 48.2 °F - 19.4 °F 32% 30.22 in 10.0 mi SW 19.6 mph - N/A   Clear
11:55 AM 50.0 °F - 19.4 °F 30% 30.21 in 10.0 mi SW 16.1 mph - N/A   Clear
12:15 PM 51.8 °F - 19.4 °F 28% 30.21 in 10.0 mi SW 16.1 mph 24.2 mph N/A   Clear
12:35 PM 51.8 °F - 21.2 °F 30% 30.19 in 10.0 mi SW 13.8 mph 20.7 mph N/A   Clear
12:55 PM 53.6 °F - 21.2 °F 28% 30.17 in 10.0 mi SSW 17.3 mph 23.0 mph N/A   Clear
1:15 PM 53.6 °F - 21.2 °F 28% 30.15 in 10.0 mi SSW 17.3 mph 25.3 mph N/A   Clear
1:35 PM 55.4 °F - 23.0 °F 29% 30.14 in 10.0 mi SSW 20.7 mph 25.3 mph N/A   Clear
1:55 PM 55.4 °F - 23.0 °F 29% 30.13 in 10.0 mi SW 17.3 mph 23.0 mph N/A   Clear
2:15 PM 57.2 °F - 21.2 °F 25% 30.12 in 10.0 mi SW 15.0 mph 20.7 mph N/A   Clear
2:35 PM 57.2 °F - 23.0 °F 27% 30.12 in 10.0 mi SSW 12.7 mph 18.4 mph N/A   Clear
2:55 PM 57.2 °F - 23.0 °F 27% 30.12 in 10.0 mi SW 15.0 mph 20.7 mph N/A   Clear
3:15 PM 57.2 °F - 23.0 °F 27% 30.11 in 10.0 mi SSW 12.7 mph 20.7 mph N/A   Clear
3:35 PM 57.2 °F - 23.0 °F 27% 30.10 in 10.0 mi SSW 12.7 mph 17.3 mph N/A   Clear
3:55 PM 59.0 °F - 23.0 °F 25% 30.10 in 10.0 mi SW 13.8 mph - N/A   Clear
4:15 PM 57.2 °F - 23.0 °F 27% 30.11 in 10.0 mi SW 8.1 mph - N/A   Clear
4:35 PM 59.0 °F - 23.0 °F 25% 30.10 in 10.0 mi South 9.2 mph - N/A   Clear
4:55 PM 57.2 °F - 23.0 °F 27% 30.10 in 10.0 mi SSW 10.4 mph - N/A   Clear
5:15 PM 57.2 °F - 23.0 °F 27% 30.10 in 10.0 mi SSW 9.2 mph - N/A   Clear
5:35 PM 57.2 °F - 23.0 °F 27% 30.10 in 10.0 mi SSW 9.2 mph - N/A   Clear
5:55 PM 53.6 °F - 23.0 °F 30% 30.11 in 10.0 mi South 8.1 mph - N/A   Clear
6:15 PM 51.8 °F - 21.2 °F 30% 30.11 in 10.0 mi South 6.9 mph - N/A   Clear
6:35 PM 48.2 °F - 19.4 °F 32% 30.13 in 10.0 mi SSE 6.9 mph - N/A   Clear
6:55 PM 46.4 °F 42.4 °F 21.2 °F 37% 30.13 in 10.0 mi SSE 8.1 mph - N/A   Clear
7:15 PM 46.4 °F 41.5 °F 19.4 °F 34% 30.14 in 10.0 mi SSE 10.4 mph - N/A   Clear
7:35 PM 46.4 °F 41.5 °F 19.4 °F 34% 30.15 in 10.0 mi SSE 10.4 mph - N/A   Clear
7:55 PM 46.4 °F 41.1 °F 19.4 °F 34% 30.15 in 10.0 mi SSE 11.5 mph - N/A   Clear
8:15 PM 44.6 °F 38.8 °F 19.4 °F 37% 30.16 in 10.0 mi SSE 11.5 mph - N/A   Clear
8:55 PM 42.8 °F 38.0 °F 17.6 °F 36% 30.17 in 10.0 mi SSE 8.1 mph - N/A   Clear
9:15 PM 41.0 °F 35.8 °F 17.6 °F 39% 30.17 in 10.0 mi SSE 8.1 mph - N/A   Clear
9:35 PM 39.2 °F 33.6 °F 17.6 °F 42% 30.18 in 10.0 mi SSE 8.1 mph - N/A   Clear
9:55 PM 39.2 °F 32.5 °F 17.6 °F 42% 30.19 in 10.0 mi SSE 10.4 mph - N/A   Clear
10:15 PM 39.2 °F 33.0 °F 17.6 °F 42% 30.20 in 10.0 mi SSE 9.2 mph - N/A   Clear
10:35 PM 37.4 °F 30.8 °F 17.6 °F 45% 30.20 in 10.0 mi South 9.2 mph - N/A   Clear
10:55 PM 37.4 °F 30.8 °F 17.6 °F 45% 30.20 in 10.0 mi South 9.2 mph - N/A   Clear
11:15 PM 35.6 °F 30.7 °F 17.6 °F 48% 30.21 in 10.0 mi SE 5.8 mph - N/A   Clear